On 2012-09-19 23:45, i8cvs wrote:
> Hi David, KY7DR
>
> I suggest you to compare the 2 line NASA orbital data with the AMSAT
> Keplerian elements for the same day and you will get the answere to your
> questions.
>
> Example for OSCAR-7
>
> DECODE 2-LINE ELSETS WITH THE FOLLOWING KEY:
> 1 AAAAAU 00  0  0 BBBBB.BBBBBBBB  .CCCCCCCC  00000-0  00000-0 0  DDDZ
> 2 AAAAA EEE.EEEE FFF.FFFF GGGGGGG HHH.HHHH III.IIII JJ.JJJJJJJJKKKKKZ
> KEY: A-CATALOGNUM B-EPOCHTIME C-DECAY D-ELSETNUM E-INCLINATION F-RAAN
> G-ECCENTRICITY H-ARGPERIGEE I-MNANOM J-MNMOTION K-ORBITNUM Z-CHECKSUM
>
> Two line NASA orbital data for orbit KKKKK or i.e. numbar 73100
>
> AO-07
> 1 07530U 74089B   12256.61218065 -.00000027  00000-0  10000-3 0  4795
> 2 07530 101.4099 250.4681 0012001 109.6272 250.6089 12.53591141731001
>
> AMSAT orbital data for the same Epoch revolution i. e. the same orbit numbar
> 73100
>
> Satellite: AO-07
> Catalog number: 07530
> Epoch time:      12256.61218065
> Element set:     479
> Inclination:      101.4099 deg
> RA of node:       250.4681 deg
> Eccentricity:    0.0012001
> Arg of perigee:   109.6272 deg
> Mean anomaly:     250.6089 deg
> Mean motion:   12.53591141 rev/day
> Decay rate:       -2.7e-07 rev/day^2
> Epoch rev:           73100
> Checksum:              262
>
> About your calculation:
>
> If the sign is plus like in +89689-4 your following calculation is correct:
>
> +89689-4 = 0.89689 * 10 ^-4 or 0.000089689
>
> 73" de
>
> i8CVS Domenico
>
> ----- Original Message -----
> From: "David A. Rush" <david@xxxxxxxx.xxx>
> To: <AMSAT-BB@xxxxx.xxx>
> Sent: Thursday, September 20, 2012 2:19 AM
> Subject: [amsat-bb] Decoding Keps
>
>
>> I've been working on some code to decode the two-line Keplerian data
>> like the ARRL sends out weekly (with a thank-you to AMSAT-NA).
>>
>> A couple of the values are in a somewhat cryptic format, the "BSTAR" and
>> "second derivative of the mean motion".  The strings tend to be either a
>> space or a + sign, five digits, usually a minus sign (but seen at least
>> once as a plus sign) and finally another digit, such as:
>>
>> +00000-0
>> +11682-3
>>    00000-0
>> 30767-3
>>    00000-0
>> 00000+0
>> +00000-0
>> +89689-4
>>
>> What I have found about this format is that it is "decimal assumed", and
>> examples suggest that +89689-4 = 0.89689 * 10 ^-4 or 0.000089689, if I
>> converted that correctly.
>> I'm guessing that the first character is the sign (+ or -) of the
>> number, where a space is assumed positive.  I've only seen one example
>> of the 7th character being a plus (and all the digits were zero), so I
>> assume that + or - are valid values for the exponent.  I guess the
>> format is fundamentally limited to an exponent between +9 and -9.
>>
>> Am I interpreting it correctly?  Any other insight?
>>
>> David, ky7dr
>> _______________________________________________
>> Sent via AMSAT-BB@xxxxx.xxx. Opinions expressed are those of the author.
>> Not an AMSAT-NA member? Join now to support the amateur satellite program!
>> Subscription settings: http://amsat.org/mailman/listinfo/amsat-bb
>
>



------------------------------

Message: 6
Date: Fri, 21 Sep 2012 01:57:24 +0000
From: B J <va6bmj@xxxxx.xxx>
To: amsat-bb <amsat-bb@xxxxx.xxx>
Subject: [amsat-bb] Date Set For Next SpaceX Launch
Message-ID:
<CAP7QzkMNO0LJaZF0mX5cs8R7zJfAdOZAgyrKpfqZFSw4unN-Sg@xxxx.xxxxx.xxx>
Content-Type: text/plain; charset=ISO-8859-1

http://www.onorbit.com/node/4968
http://www.parabolicarc.com/2012/09/20/first-spacex-cargo-resupply-flight-targ
eted-for-oct-7/

73s

Bernhard VA6BMJ @ DO33FL


------------------------------

Message: 7
Date: Fri, 21 Sep 2012 00:08:46 -0500
From: Tom Gentry <t.gentry@xxxxxxx.xxx>
To: amsat-bb@xxxxx.xxx
Subject: [amsat-bb] The chicken and the egg.syndrome.
Message-ID: <505BF65E.60806@xxxxxxx.xxx>
Content-Type: text/plain; charset=ISO-8859-1; format=flowed

My name is Tom and my call is K5VOU. I am a life-member of AMSAT and the
ARRL as well as an Extra Class license holder. I have observed both
organizations at work from the inside both as a volunteer and a vendor.
My satellite ground station is an old Yaesu FT-726 and the antennas are
circularly polarized versions of Kent Britain's 'controlled impedance'
VHF and UHF on a back yard tripod with the original KR-5400 prototype
AZ-El rotor and the AMSAT tracker box connected to an X machine.  I am
adding an SDR receiver/panadpter asap.

BTW: The opinions expressed in this email are mine alone and you are not
required to agree with them or condemn them. They are just my opinions
and observations.

Here are a few observations in brief;

1) AMSAT is a meaningful organization filled with talented and well
intentioned people interested in building, operating and communicating
through space based radio systems via amateur radio.

2) AMSAT is composed of two special interest groups, the creators of the
radio/satellites and the communicators using the satellites.

3) The creators depend on funding from the communicators.

4) The communicators depend on the creators for space based radios
through which to communicate.

5) There is 'no free ride' to HEO and the communicators can not raise
enough money to purchase a launch at market price.

6) There is no government funding available to AMSAT.

7) The regulatory climate is hostile to amateur radio satellites (ITAR).

Opinion;

The AMSAT paradigm needs to change to allow the creators to get more
radios into space for the communicators.  Well funded organizations are
building satellites with radios for telemetry and perhaps communication.
One possible solution to the observations is to get out of the launch
business completely and for the creators to build radios for other
organizations creating satellites. These radios would include the
capabilities desired by the organization and also include the desired
functionality for the communicators in order to get a ride to space.  In
essence trade radios for rides.  This would allow AMSAT to use their
knowledge and resources for building space based radios.












------------------------------

Message: 8
Date: Fri, 21 Sep 2012 01:48:22 -0400
From: "Daniel Schultz" <n8fgv@xxx.xxx>
To: <amsat-bb@xxxxx.xxx>
Subject: [amsat-bb] Re: 22% votes
Message-ID: <799qiuFvw8880S03.1348206502@xxxxx.xxx.xxx.xxx>
Content-Type: text/plain; charset=ISO-8859-1

Amsat is living in a brave new world where launches are fully commercialized
and nobody gets a free ride anymore. We will either adapt to that paradigm
shift or we will cease to exist.

Things were a lot different in the 1960's and 70's. In 1961 an Air Force
general had enough authority to allow Oscar 1 to be bolted to the side of his
launch vehicle. It is like this in the early days of all new technological
ventures. The internet in the early 1990's was a lot more free-wheeling before
the "suits" took notice of it and started to regulate it.

In today's world the bean counters are fully in charge, and nobody rides for
free. When you have commercial companies offering $10 million to place 100 kg
in orbit, that becomes the market price, and the only way to lower that price
is to expand the supply of launches.

This development is especially ironic because Amsat created the entire small
satellite industry. There was a time when industry and government experts
laughed at us and our little toy satellites. We proved that small satellites
are valuable and now everybody wants to launch them. A little company called
Surrey Satellite Technology grew out of Amsat endeavors.

AO-40 was a once in a lifetime opportunity. ESA offered us a 600 kilogram ride
on one of the first Ariane 5 vehicles and we voted to go for it. The reasons
for AO-40's failure have been covered before, and further analysis will not
add to the discussion. It is not a mistake to throw deep sometimes. If AO-40
had worked as designed, it would have revolutionized amateur radio. We gambled
and lost and we will most likely never see another 600 kg launch opportunity.

The Eagle project was started about a decade ago in hope of launching a more
modest HEO replacement for AO-40, and to be able to do so on a regular basis
so that a single satellite failure would not ground the entire program. This
effort was overtaken by the tidal wave of cubesats. With every single
university on Earth launching a cubesat all of the available launch
opportunities are filled with pea-pod launchers and there is no room for
Eagle, unless someone writes a check for $10 million.

Since cubesats are the only available launches, Amsat has started the Fox
program to participate in the cubesat trend. Amsat can help its case by making
Fox the best engineered cubesat ever built, which should not be too hard
compared to some of the other cubesat designs that I have seen.

The university cubesats use amateur radio frequencies as inexpensive data
downlinks, but they do not otherwise contribute to the basis and purpose of
amateur radio as defined in part 97. Education is mentioned in part 97 but
many of these cubesat programs just barely touch on the communications aspects
of space flight.

